Starlink 5988

operational
NORAD ID: 56320 Int'l Des: 2023-058 Owner: SPXS Country: US Constellation: starlink
LEOCIRCULARRETROGRADESSO

About Starlink 5988

Description loading...

Live Position

Loading 3D Globe...

Upcoming Passes

Altitude History

Altitude vs Time

uPlot chart will show altitude changes over time

Two-Line Element Set

1 56320U 23058D 26036.21761478 .00001038 00000-0 85358-4 0 9992
2 56320 97.6059 38.3419 0001993 83.2601 276.8850 15.01262689152918
Epoch: Feb 5, 2026 • Age: 9 hours

Current Status

Altitude 565.5 km
Velocity 7.58 km/s
Sub-Earth Point 21.89°N, 122.8°W
Launch Date Apr 27, 2023
Age 2.7 years
Type internet

Technical Details

Classification Payload
Mass 300.00 kg
Dry Mass 260.00 kg
Total Mass 300.00 kg
Length 0.20 m
Diameter 2.80 m
Span 9.00 m
Shape Box + pan
Manufacturer SPXS
Bus Type Starlink
Phase Status In Orbit
Owner/State SPXS/US

Large Constellations

Loading constellations...